Weather History for Louisburg, NC

Change the Weather History Date:

Sunday, March 3, 2013

  Actual Average (KRDU) Record (KRDU)
Temperature  
Mean Temperature 37 °F 48 °F  
Max Temperature 44 °F 59 °F 87 °F (1976)
Min Temperature 30 °F 37 °F 12 °F (1980)
Degree Days  
Heating Degree Days 28 17  
Month to date heating degree days 52  
Since 1 July heating degree days 2624  
Cooling Degree Days 0 0  
Month to date cooling degree days 0  
Year to date cooling degree days 1  
Moisture  
Dew Point 19 °F    
Average Humidity 52    
Maximum Humidity 69    
Minimum Humidity 34    
Precipitation  
Precipitation 0.00 in 0.13 in 1.66 in (1952)
Month to date precipitation 0.39  
Year to date precipitation 7.12  
Snow  
Snow 0.00 in 0.00 in 2.90 in (1912)
Month to date snowfall 0.1  
Since 1 July snowfall 5.6  
Snow Depth -    
Sea Level Pressure  
Sea Level Pressure 29.90 in    
Wind  
Wind Speed 3 mph (NW)    
Max Wind Speed 10 mph    
Max Gust Speed 16 mph    
Visibility 10 miles    
Events      
T = Trace of Precipitation, MM = Missing Value Source: NWS Daily Summary

Daily Weather History Graph

Daily Weather History Graph

Search for Another Location

Airport:

Trip Planner

Search our weather history database for the weather conditions in past years. The results will help you decide how hot, cold, wet, or windy it might be!

Date:

Astronomy

Mar. 03, 2013 Rise Set
Actual Time 6:40 AM EST 6:10 PM EST
Civil Twilight 6:14 AM EST 6:36 PM EST
Nautical Twilight 5:45 AM EST 7:05 PM EST
Astronomical Twilight 5:15 AM EST 7:35 PM EST
Moon No Moon Rise 10:06 AM EST (3/3)
Length of Visible Light 12h 21m
Length of Day
11h 29m
Waning Gibbous, 64% of the Moon is Illuminated
Mar 3
Waning Gibbous
Mar 4
Last Quarter
Mar 11
New
Mar 19
First Quarter
Mar 27
Full

Hourly Weather History & Observations

Time (EST) Temp. Windchill Dew Point Humidity Pressure Visibility Wind Dir Wind Speed Gust Speed Precip Events Conditions
12:15 AM 32.0 °F - 19.4 °F 60% 29.90 in 10.0 mi Calm Calm - N/A   Scattered Clouds
12:35 AM 32.0 °F - 19.4 °F 60% 29.90 in 10.0 mi Calm Calm - N/A   Clear
12:55 AM 32.0 °F 28.7 °F 19.4 °F 60% 29.90 in 10.0 mi West 3.5 mph - N/A   Clear
1:15 AM 30.2 °F 26.7 °F 19.4 °F 64% 29.90 in 10.0 mi West 3.5 mph - N/A   Clear
1:35 AM 30.2 °F 26.7 °F 19.4 °F 64% 29.90 in 10.0 mi WNW 3.5 mph - N/A   Clear
1:55 AM 30.2 °F - 19.4 °F 64% 29.90 in 10.0 mi Calm Calm - N/A   Clear
2:15 AM 30.2 °F - 19.4 °F 64% 29.90 in 10.0 mi Calm Calm - N/A   Clear
2:35 AM 30.2 °F - 19.4 °F 64% 29.89 in 10.0 mi Calm Calm - N/A   Scattered Clouds
2:55 AM 30.2 °F - 21.2 °F 69% 29.89 in 10.0 mi Calm Calm - N/A   Overcast
3:15 AM 30.2 °F - 21.2 °F 69% 29.88 in 10.0 mi Calm Calm - N/A   Overcast
3:35 AM 30.2 °F 26.7 °F 21.2 °F 69% 29.88 in 10.0 mi WNW 3.5 mph - N/A   Overcast
3:55 AM 32.0 °F - 21.2 °F 64% 29.88 in 10.0 mi Calm Calm - N/A   Overcast
4:15 AM 32.0 °F 28.7 °F 21.2 °F 64% 29.89 in 10.0 mi NW 3.5 mph - N/A   Overcast
4:35 AM 32.0 °F 28.7 °F 19.4 °F 60% 29.89 in 10.0 mi WNW 3.5 mph - N/A   Overcast
4:55 AM 32.0 °F 28.7 °F 21.2 °F 64% 29.89 in 10.0 mi West 3.5 mph - N/A   Overcast
5:15 AM 32.0 °F 28.7 °F 21.2 °F 64% 29.90 in 10.0 mi WNW 3.5 mph - N/A   Overcast
5:35 AM 32.0 °F 28.7 °F 21.2 °F 64% 29.90 in 10.0 mi WNW 3.5 mph - N/A   Overcast
5:55 AM 32.0 °F - 21.2 °F 64% 29.90 in 10.0 mi Calm Calm - N/A   Overcast
6:15 AM 32.0 °F 28.7 °F 21.2 °F 64% 29.90 in 10.0 mi West 3.5 mph - N/A   Overcast
6:35 AM 32.0 °F 28.7 °F 21.2 °F 64% 29.91 in 10.0 mi NW 3.5 mph - N/A   Overcast
6:55 AM 32.0 °F 27.5 °F 21.2 °F 64% 29.91 in 10.0 mi NNW 4.6 mph - N/A   Overcast
7:15 AM 32.0 °F 28.7 °F 21.2 °F 64% 29.92 in 10.0 mi WNW 3.5 mph - N/A   Overcast
7:35 AM 32.0 °F 28.7 °F 21.2 °F 64% 29.92 in 10.0 mi NW 3.5 mph - N/A   Overcast
7:55 AM 32.0 °F 27.5 °F 19.4 °F 60% 29.92 in 10.0 mi NW 4.6 mph - N/A   Overcast
8:15 AM 32.0 °F 27.5 °F 21.2 °F 64% 29.93 in 10.0 mi WNW 4.6 mph - N/A   Overcast
8:35 AM 33.8 °F 30.8 °F 21.2 °F 60% 29.93 in 10.0 mi NW 3.5 mph - N/A   Overcast
8:55 AM 33.8 °F 28.6 °F 19.4 °F 56% 29.93 in 10.0 mi NW 5.8 mph - N/A   Overcast
9:15 AM 35.6 °F 30.7 °F 21.2 °F 56% 29.93 in 10.0 mi NNW 5.8 mph - N/A   Mostly Cloudy
9:35 AM 35.6 °F 29.9 °F 19.4 °F 52% 29.93 in 10.0 mi North 6.9 mph - N/A   Scattered Clouds
9:55 AM 35.6 °F 29.9 °F 19.4 °F 52% 29.92 in 10.0 mi North 6.9 mph - N/A   Scattered Clouds
10:15 AM 37.4 °F 33.8 °F 19.4 °F 48% 29.92 in 10.0 mi NNW 4.6 mph - N/A   Scattered Clouds
10:35 AM 37.4 °F 33.8 °F 19.4 °F 48% 29.92 in 10.0 mi North 4.6 mph - N/A   Scattered Clouds
10:55 AM 37.4 °F 32.1 °F 19.4 °F 48% 29.92 in 10.0 mi North 6.9 mph - N/A   Scattered Clouds
11:15 AM 37.4 °F 33.8 °F 19.4 °F 48% 29.91 in 10.0 mi North 4.6 mph - N/A   Scattered Clouds
11:35 AM 39.2 °F 35.9 °F 19.4 °F 45% 29.91 in 10.0 mi North 4.6 mph - N/A   Mostly Cloudy
11:55 AM 41.0 °F 36.4 °F 19.4 °F 42% 29.91 in 10.0 mi NNW 6.9 mph - N/A   Mostly Cloudy
12:15 PM 41.0 °F 36.4 °F 19.4 °F 42% 29.90 in 10.0 mi NW 6.9 mph - N/A   Mostly Cloudy
12:35 PM 41.0 °F 36.4 °F 19.4 °F 42% 29.89 in 10.0 mi WSW 6.9 mph - N/A   Mostly Cloudy
12:55 PM 42.8 °F 38.0 °F 19.4 °F 39% 29.88 in 10.0 mi WNW 8.1 mph - N/A   Overcast
1:15 PM 42.8 °F 40.1 °F 19.4 °F 39% 29.87 in 10.0 mi NW 4.6 mph - N/A   Overcast
1:35 PM 41.0 °F 36.4 °F 19.4 °F 42% 29.86 in 10.0 mi NW 6.9 mph - N/A   Scattered Clouds
1:55 PM 42.8 °F 37.5 °F 19.4 °F 39% 29.85 in 10.0 mi West 9.2 mph - N/A   Scattered Clouds
2:15 PM 42.8 °F 37.0 °F 17.6 °F 36% 29.84 in 10.0 mi WNW 10.4 mph 16.1 mph N/A   Mostly Cloudy
2:35 PM 44.6 °F 40.2 °F 19.4 °F 37% 29.84 in 10.0 mi NNW 8.1 mph - N/A   Scattered Clouds
2:55 PM 44.6 °F 40.7 °F 19.4 °F 37% 29.84 in 10.0 mi NNW 6.9 mph - N/A   Scattered Clouds
3:15 PM 44.6 °F 42.2 °F 19.4 °F 37% 29.84 in 10.0 mi NNW 4.6 mph - N/A   Scattered Clouds
3:35 PM 44.6 °F 43.1 °F 19.4 °F 37% 29.83 in 10.0 mi WNW 3.5 mph - N/A   Clear
3:55 PM 44.6 °F 40.2 °F 19.4 °F 37% 29.84 in 10.0 mi WNW 8.1 mph 16.1 mph N/A   Scattered Clouds
4:15 PM 44.6 °F 43.1 °F 17.6 °F 34% 29.84 in 10.0 mi West 3.5 mph - N/A   Scattered Clouds
4:35 PM 44.6 °F 42.2 °F 19.4 °F 37% 29.84 in 10.0 mi WNW 4.6 mph - N/A   Scattered Clouds
4:55 PM 44.6 °F 41.4 °F 19.4 °F 37% 29.84 in 10.0 mi West 5.8 mph - N/A   Scattered Clouds
5:15 PM 42.8 °F 39.3 °F 17.6 °F 36% 29.85 in 10.0 mi WNW 5.8 mph - N/A   Clear
5:35 PM 42.8 °F 41.1 °F 19.4 °F 39% 29.85 in 10.0 mi WNW 3.5 mph - N/A   Scattered Clouds
5:55 PM 42.8 °F 41.1 °F 19.4 °F 39% 29.86 in 10.0 mi WNW 3.5 mph - N/A   Mostly Cloudy
6:15 PM 41.0 °F 37.1 °F 19.4 °F 42% 29.87 in 10.0 mi West 5.8 mph - N/A   Mostly Cloudy
6:35 PM 39.2 °F 35.9 °F 19.4 °F 45% 29.88 in 10.0 mi NW 4.6 mph - N/A   Scattered Clouds
6:55 PM 37.4 °F 32.1 °F 19.4 °F 48% 29.90 in 10.0 mi NW 6.9 mph - N/A   Clear
7:35 PM 35.6 °F 29.2 °F 19.4 °F 52% 29.92 in 10.0 mi NW 8.1 mph - N/A   Clear
7:55 PM 35.6 °F 29.2 °F 19.4 °F 52% 29.93 in 10.0 mi NW 8.1 mph - N/A   Clear
8:15 PM 35.6 °F 31.7 °F 17.6 °F 48% 29.94 in 10.0 mi NW 4.6 mph - N/A   Clear
8:35 PM 33.8 °F 27.7 °F 17.6 °F 52% 29.94 in 10.0 mi WNW 6.9 mph - N/A   Clear
8:55 PM 33.8 °F 28.6 °F 17.6 °F 52% 29.95 in 10.0 mi NNW 5.8 mph - N/A   Clear
9:15 PM 33.8 °F 25.8 °F 17.6 °F 52% 29.95 in 10.0 mi NW 10.4 mph 16.1 mph N/A   Clear
9:35 PM 32.0 °F 26.4 °F 17.6 °F 55% 29.96 in 10.0 mi NW 5.8 mph - N/A   Clear
9:55 PM 32.0 °F 25.6 °F 15.8 °F 51% 29.96 in 10.0 mi NW 6.9 mph - N/A   Clear
10:15 PM 32.0 °F 28.7 °F 15.8 °F 51% 29.97 in 10.0 mi NW 3.5 mph - N/A   Clear
10:35 PM 32.0 °F 28.7 °F 15.8 °F 51% 29.97 in 10.0 mi NW 3.5 mph - N/A   Clear
10:55 PM 32.0 °F 27.5 °F 15.8 °F 51% 29.97 in 10.0 mi WNW 4.6 mph - N/A   Clear
11:15 PM 32.0 °F 27.5 °F 15.8 °F 51% 29.97 in 10.0 mi WNW 4.6 mph - N/A   Clear
11:35 PM 32.0 °F 25.6 °F 15.8 °F 51% 29.97 in 10.0 mi NW 6.9 mph - N/A   Clear
11:55 PM 32.0 °F 27.5 °F 15.8 °F 51% 29.97 in 10.0 mi NW 4.6 mph - N/A   Clear